Location: Unspecified
(48.7670°N, 0.0000°E)
Time: 02:32:46
(UTC+00:00)

PicSat - Visible Passes

Search period start: 23 July 2019 00:00
Search period end: 02 August 2019 00:00
Orbit: 486 x 500 km, 97.5° (Epoch: 22 July)

Date Brightness Start Highest point End Pass type
(mag) Time Alt. Az. Time Alt. Az. Time Alt. Az.
23 Jul ? 20:59:40 14° SE 21:02:31 40° ENE 21:05:57 10° N visible
23 Jul ? 22:34:12 11° SW 22:36:19 17° W 22:38:45 10° NW visible
24 Jul ? 20:37:57 10° ESE 20:40:55 24° ENE 20:43:53 10° NNE visible
24 Jul ? 22:12:19 17° SW 22:14:26 28° W 22:17:38 10° NW visible
25 Jul ? 21:50:25 21° S 21:52:36 50° W 21:56:10 10° NNW visible
26 Jul ? 21:28:31 21° SSE 21:30:51 87° ENE 21:34:30 10° NNW visible
27 Jul ? 21:06:38 17° SE 21:09:10 47° ENE 21:12:39 10° N visible
27 Jul ? 22:41:10 11° WSW 22:43:02 14° W 22:45:05 10° NW visible
28 Jul ? 20:44:44 12° SE 20:47:31 28° ENE 20:50:39 10° N visible
28 Jul ? 22:19:17 17° SW 22:21:08 24° W 22:24:08 10° NW visible
29 Jul ? 20:23:32 10° ESE 20:25:57 17° ENE 20:28:22 10° NNE visible
29 Jul ? 21:57:23 23° SSW 21:59:16 42° W 22:02:45 10° NNW visible
30 Jul ? 21:35:29 25° S 21:37:29 79° WSW 21:41:08 10° NNW visible
31 Jul ? 21:13:35 21° SE 21:15:45 57° ENE 21:19:20 10° N visible
31 Jul ? 22:48:11 10° WSW 22:49:43 12° W 22:51:16 10° WNW visible
01 Aug ? 20:51:42 15° SE 20:54:06 32° ENE 20:57:22 10° N visible
01 Aug ? 22:26:14 16° SW 22:27:47 21° W 22:30:34 10° NW visible
